Volver al catálogo

OPS 4682 DEB

ActivoPO
NORAD 51765·DEBRIS·🇺🇸 United States

Lanzado Apr 3, 1965 desde Vandenberg Space Force Base

Loading…

Próximos Pases (próximas 24 horas)

TLE

ActualizadoSource: Space-Track

Época: Sep 14, 2026, 06:00 UTC

1 51765U 65027GW  26257.25065125 -.00000226  00000-0 -73546-3 0  9992
2 51765  90.2410   3.4363 0028275   3.1880  25.1419 13.03737541603549

Sigue OPS 4682 DEB en tiempo real con AllMySat

Download on the App Store